ONEWEB-0175

Last updated on Sun Apr 25 2021 00:02:03 GMT+0000 (Coordinated Universal Time)

1 48073U 21025AH 21114.58336806 -.01140478 00000-0 -61200-1 0 9997 2 48073 87.4179 339.4092 0008674 156.3656 52.5086 15.17787885 1786

Satellite not in orbit

ONEWEB-0175